Manitowish Waters, Manitowish, WI

9:39 AM CDT on October 23, 2017 (GMT -0500)
Manitowish Waters, Manitowish

Weather History for KD25 - January, 2014

Change the Weather History Date:

Sunday, January 5, 2014

  Actual Average (KARV) Record (KARV)
Temperature  
Mean Temperature -12 °F -  
Max Temperature -1 °F 18 °F 42 °F (2012)
Min Temperature -23 °F -3 °F -30 °F (1959)
Degree Days  
Heating Degree Days 77    
Moisture  
Dew Point -19 °F    
Average Humidity 74    
Maximum Humidity 81    
Minimum Humidity 60    
Precipitation  
Precipitation 0.00 in - - ()
Sea Level Pressure  
Sea Level Pressure 30.08 in    
Wind  
Wind Speed 5 mph (NW)    
Max Wind Speed 13 mph    
Max Gust Speed -    
Visibility 10 miles    
Events Snow    
Averages and records for this station are not official NWS values.
T = Trace of Precipitation, MM = Missing Value Source: NWS Daily Summary

Daily Weather History Graph

Daily Weather History Graph

Search for Another Location

Airport or City:

Trip Planner

Search our weather history database for the weather conditions in past years. The results will help you decide how hot, cold, wet, or windy it might be!

Date:

Astronomy

Jan. 05, 2014 Rise Set
Actual Time 7:41 AM CST 4:28 PM CST
Civil Twilight 7:07 AM CST 5:02 PM CST
Nautical Twilight 6:29 AM CST 5:40 PM CST
Astronomical Twilight 5:53 AM CST 6:16 PM CST
Moon 10:05 AM CST (1/5) 10:15 PM CST (1/5)
Length of Visible Light 9h 55m
Length of Day
8h 46m
Waxing Crescent, 25% of the Moon is Illuminated
Jan 5
Waxing Crescent
Jan 7
First Quarter
Jan 15
Full
Jan 23
Last Quarter
Jan 30
New

Hourly Weather History & Observations

Time (CST) Temp. Windchill Dew Point Humidity Pressure Visibility Wind Dir Wind Speed Gust Speed Precip Events Conditions
12:15 AM -1.7 °F -11.8 °F -6.3 °F 80% 30.03 in 10.0 mi WNW 4.6 mph - N/A   Overcast
12:35 AM -4.0 °F -16.3 °F -8.7 °F 80% 30.03 in 10.0 mi NW 5.8 mph - N/A   Overcast
12:55 AM -5.4 °F -16.2 °F -10.1 °F 80% 30.03 in 10.0 mi WNW 4.6 mph - N/A   Overcast
1:15 AM -4.4 °F -12.8 °F -8.9 °F 81% 30.05 in 10.0 mi WNW 3.5 mph - N/A   Overcast
1:35 AM -4.5 °F -15.2 °F -9.0 °F 81% 30.06 in 10.0 mi WNW 4.6 mph - N/A   Overcast
1:55 AM -4.5 °F -16.9 °F -9.2 °F 80% 30.07 in 10.0 mi WNW 5.8 mph - N/A   Overcast
2:15 AM -5.1 °F -19.1 °F -9.9 °F 80% 30.08 in 10.0 mi WNW 6.9 mph - N/A   Overcast
2:35 AM -5.8 °F -19.9 °F -10.5 °F 80% 30.07 in 10.0 mi WNW 6.9 mph - N/A   Overcast
2:55 AM -6.5 °F -19.3 °F -11.2 °F 80% 30.08 in 10.0 mi WNW 5.8 mph - N/A   Overcast
3:15 AM -7.1 °F -19.9 °F -12.1 °F 79% 30.08 in 10.0 mi WNW 5.8 mph - N/A   Overcast
3:35 AM -8.1 °F -21.2 °F -13.2 °F 79% 30.08 in 10.0 mi WNW 5.8 mph - N/A   Overcast
3:55 AM -9.4 °F -22.7 °F -14.4 °F 78% 30.08 in 10.0 mi NW 5.8 mph - N/A   Overcast
4:15 AM -11.6 °F -21.0 °F -16.1 °F 80% 30.08 in 10.0 mi WNW 3.5 mph - N/A   Overcast
4:35 AM -11.6 °F -25.3 °F -16.1 °F 80% 30.09 in 10.0 mi NW 5.8 mph - N/A   Mostly Cloudy
4:55 AM -12.8 °F -22.5 °F -17.3 °F 80% 30.10 in 10.0 mi WNW 3.5 mph - N/A   Scattered Clouds
5:15 AM -13.2 °F -22.9 °F -17.5 °F 81% 30.11 in 10.0 mi WNW 3.5 mph - N/A   Scattered Clouds
5:35 AM -16.8 °F -29.5 °F -21.6 °F 79% 30.12 in 10.0 mi West 4.6 mph - N/A   Scattered Clouds
5:55 AM -16.4 °F -29.1 °F -20.9 °F 80% 30.12 in 10.0 mi WNW 4.6 mph - N/A   Clear
6:15 AM -15.7 °F - -20.2 °F 80% 30.13 in 10.0 mi Calm Calm - N/A   Clear
6:35 AM -18.4 °F -28.9 °F -23.3 °F 78% 30.14 in 10.0 mi WNW 3.5 mph - N/A   Clear
6:55 AM -17.0 °F - -21.5 °F 80% 30.13 in 10.0 mi Calm Calm - N/A   Clear
7:15 AM -21.5 °F - -26.3 °F 78% 30.14 in 10.0 mi Calm Calm - N/A   Clear
7:35 AM -22.4 °F - -27.0 °F 79% 30.14 in 10.0 mi Calm Calm - N/A   Clear
7:55 AM -22.9 °F - -28.5 °F 75% 30.14 in 1.8 mi Calm Calm - N/A   Haze
8:15 AM -21.5 °F - -27.2 °F 75% 30.15 in 0.2 mi Calm Calm - N/A Snow Light Snow
8:35 AM -23.8 °F - -29.2 °F 76% 30.16 in 7.0 mi Calm Calm - N/A   Scattered Clouds
8:55 AM -19.8 °F -30.5 °F -25.4 °F 75% 30.16 in 7.0 mi West 3.5 mph - N/A   Clear
9:15 AM -16.1 °F -32.3 °F -21.3 °F 77% 30.15 in 10.0 mi WNW 6.9 mph - N/A   Clear
9:35 AM -14.6 °F -32.0 °F -20.0 °F 77% 30.15 in 10.0 mi NW 8.1 mph - N/A   Clear
9:55 AM -13.2 °F -32.6 °F -18.4 °F 77% 30.15 in 10.0 mi NW 10.4 mph - N/A   Clear
10:15 AM -11.7 °F -32.7 °F -16.8 °F 78% 30.15 in 10.0 mi NW 12.7 mph - N/A   Clear
10:35 AM -10.3 °F -26.7 °F -16.2 °F 75% 30.15 in 10.0 mi NW 8.1 mph - N/A   Clear
10:55 AM -9.4 °F -26.8 °F -15.7 °F 74% 30.14 in 10.0 mi NNW 9.2 mph - N/A   Clear
11:15 AM -8.5 °F -21.6 °F -15.7 °F 71% 30.13 in 10.0 mi NNW 5.8 mph - N/A   Clear
11:35 AM -8.0 °F -25.0 °F -15.3 °F 70% 30.12 in 10.0 mi NNW 9.2 mph - N/A   Clear
11:55 AM -7.8 °F -26.8 °F -15.7 °F 68% 30.11 in 10.0 mi NW 11.5 mph - N/A   Scattered Clouds
12:15 PM -6.9 °F -21.2 °F -15.5 °F 66% 30.10 in 10.0 mi NW 6.9 mph - N/A   Scattered Clouds
12:35 PM -6.9 °F -19.7 °F -15.9 °F 65% 30.09 in 10.0 mi North 5.8 mph - N/A   Scattered Clouds
12:55 PM -6.9 °F -21.2 °F -16.6 °F 63% 30.09 in 10.0 mi NW 6.9 mph - N/A   Clear
1:15 PM -6.3 °F -21.9 °F -16.1 °F 63% 30.08 in 10.0 mi WNW 8.1 mph - N/A   Clear
1:35 PM -6.2 °F -23.9 °F -15.9 °F 63% 30.08 in 10.0 mi NW 10.4 mph - N/A   Clear
1:55 PM -6.2 °F -21.7 °F -16.2 °F 62% 30.08 in 10.0 mi NW 8.1 mph - N/A   Clear
2:15 PM -6.5 °F -20.8 °F -16.1 °F 63% 30.07 in 10.0 mi WNW 6.9 mph - N/A   Clear
2:35 PM -6.7 °F -22.3 °F -16.4 °F 63% 30.07 in 10.0 mi WNW 8.1 mph - N/A   Clear
2:55 PM -7.1 °F -22.8 °F -16.4 °F 64% 30.07 in 10.0 mi NNW 8.1 mph - N/A   Clear
3:15 PM -7.8 °F -24.8 °F -17.9 °F 61% 30.07 in 10.0 mi NW 9.2 mph - N/A   Clear
3:35 PM -7.8 °F -22.3 °F -18.2 °F 60% 30.07 in 10.0 mi North 6.9 mph - N/A   Clear
3:55 PM -9.4 °F -20.9 °F -18.6 °F 64% 30.08 in 10.0 mi NNW 4.6 mph - N/A   Clear
4:15 PM -9.0 °F -22.3 °F -18.8 °F 62% 30.08 in 10.0 mi NNW 5.8 mph - N/A   Clear
4:35 PM -11.0 °F - -19.7 °F 66% 30.08 in 10.0 mi Calm Calm - N/A   Clear
4:55 PM -13.5 °F -23.3 °F -20.6 °F 71% 30.09 in 10.0 mi NW 3.5 mph - N/A   Clear
5:15 PM -14.8 °F -24.8 °F -20.7 °F 75% 30.08 in 10.0 mi NW 3.5 mph - N/A   Clear
5:35 PM -16.6 °F -29.3 °F -22.5 °F 74% 30.09 in 10.0 mi NW 4.6 mph - N/A   Clear
5:55 PM -19.1 °F -34.2 °F -24.3 °F 77% 30.08 in 10.0 mi NW 5.8 mph - N/A   Clear
6:15 PM -17.1 °F -33.6 °F -22.7 °F 76% 30.08 in 10.0 mi WNW 6.9 mph - N/A   Clear
6:35 PM -16.2 °F -30.8 °F -22.4 °F 74% 30.08 in 10.0 mi WNW 5.8 mph - N/A   Clear
6:55 PM -16.1 °F -32.3 °F -22.5 °F 72% 30.07 in 10.0 mi WNW 6.9 mph - N/A   Clear
7:15 PM -16.2 °F -32.5 °F -22.9 °F 72% 30.06 in 10.0 mi WNW 6.9 mph - N/A   Clear
7:35 PM -16.1 °F -32.3 °F -22.7 °F 72% 30.05 in 10.0 mi WNW 6.9 mph - N/A   Clear
7:55 PM -16.6 °F -32.9 °F -23.1 °F 72% 30.04 in 10.0 mi WNW 6.9 mph - N/A   Clear
8:15 PM -16.6 °F -32.9 °F -23.3 °F 72% 30.03 in 10.0 mi WNW 6.9 mph - N/A   Clear
8:35 PM -17.3 °F -35.3 °F -23.8 °F 72% 30.02 in 10.0 mi WNW 8.1 mph - N/A   Clear
8:55 PM -17.9 °F -32.8 °F -24.2 °F 73% 30.01 in 10.0 mi WNW 5.8 mph - N/A   Clear
9:15 PM -17.7 °F -34.2 °F -23.8 °F 74% 30.01 in 10.0 mi WNW 6.9 mph - N/A   Clear
9:35 PM -18.0 °F -34.7 °F -23.8 °F 75% 30.01 in 10.0 mi WNW 6.9 mph - N/A   Clear
9:55 PM -18.4 °F -36.6 °F -24.0 °F 76% 30.00 in 10.0 mi WNW 8.1 mph - N/A   Clear
10:15 PM -18.6 °F -38.1 °F -24.3 °F 75% 30.00 in 10.0 mi WNW 9.2 mph - N/A   Clear
10:35 PM -18.4 °F -37.9 °F -24.3 °F 74% 29.99 in 10.0 mi WNW 9.2 mph - N/A   Clear
10:55 PM -18.6 °F -35.3 °F -24.3 °F 75% 29.99 in 10.0 mi WNW 6.9 mph - N/A   Clear
11:15 PM -19.1 °F -38.8 °F -25.1 °F 74% 29.99 in 10.0 mi WNW 9.2 mph - N/A   Clear
11:35 PM -19.3 °F -39.0 °F -25.6 °F 73% 29.98 in 10.0 mi WNW 9.2 mph - N/A   Clear
11:55 PM -19.8 °F -40.9 °F -26.3 °F 72% 29.97 in 10.0 mi WNW 10.4 mph - N/A   Clear